Location: El Limón
(10.3059°N, 67.6321°W)
Time: 12:26:03
(UTC+00:00)

H-2A R/B - Pass Details

Date: 14 April 2024
Orbit: 732 x 832 km, 98.2° (Epoch: 29 May)

Event Time Altitude Azimuth Distance (km) Brightness Sun altitude
Rises 08:15:20 0° 23° (NNE) 3,224 5.8 -30.7°
Reaches altitude 10° 08:17:42 10° 29° (NNE) 2,313 5.0 -30.1°
Maximum altitude 08:22:35 45° 102° (ESE) 1,058 3.0 -29.0°
Enters shadow 08:25:23 24° 161° (SSE) 1,602 3.6 -28.3°
